Juneau, AK

11:37 AM AKDT on July 22, 2017 (GMT -0800)
Juneau International

Weather History for PAJN - February, 2013

Change the Weather History Date:

Thursday, February 14, 2013

  Actual Average Record
Temperature  
Mean Temperature 37 °F 30 °F  
Max Temperature 40 °F 35 °F 53 °F (2017)
Min Temperature 34 °F 25 °F -11 °F (1956)
Degree Days  
Heating Degree Days 28 35  
Month to date heating degree days 411 497  
Since 1 July heating degree days 5665 5357  
Moisture  
Dew Point 36 °F    
Average Humidity 93    
Maximum Humidity 100    
Minimum Humidity 85    
Precipitation  
Precipitation 0.39 in 0.15 in 1.34 in (1985)
Month to date precipitation 3.92 2.10  
Year to date precipitation 11.62 7.45  
Snow  
Snow T in 0.60 in 10.80 in (1985)
Month to date snowfall 0.8 9.7  
Since 1 July snowfall 62.8 66.9  
Snow Depth 0.00 in    
Sea Level Pressure  
Sea Level Pressure 30.00 in    
Wind  
Wind Speed 18 mph (ESE)    
Max Wind Speed 29 mph    
Max Gust Speed 36 mph    
Visibility 7 miles    
Events Rain , Snow    
T = Trace of Precipitation, MM = Missing Value Source: NWS Daily Summary

Daily Weather History Graph

Daily Weather History Graph

Search for Another Location

Airport or City:

Trip Planner

Search our weather history database for the weather conditions in past years. The results will help you decide how hot, cold, wet, or windy it might be!

Date:

Astronomy

Feb. 14, 2013 Rise Set
Actual Time 7:32 AM AKST 4:53 PM AKST
Civil Twilight 6:50 AM AKST 5:35 PM AKST
Nautical Twilight 6:03 AM AKST 6:22 PM AKST
Astronomical Twilight 5:18 AM AKST 7:07 PM AKST
Moon 8:22 AM AKST (2/14) 11:28 PM AKST (2/14)
Length of Visible Light 10h 45m
Length of Day
9h 21m
Waxing Crescent, 23% of the Moon is Illuminated
Feb 14
Waxing Crescent
Feb 17
First Quarter
Feb 25
Full
Mar 4
Last Quarter
Mar 11
New

Hourly Weather History & Observations

Time (AKST) Temp. Windchill Dew Point Humidity Pressure Visibility Wind Dir Wind Speed Gust Speed Precip Events Conditions
12:53 AM 34.0 °F 25.5 °F 32.0 °F 92% 30.12 in 10.0 mi East 11.5 mph - 0.00 in Rain Light Rain
1:53 AM 34.0 °F 24.2 °F 33.1 °F 96% 30.12 in 10.0 mi East 15.0 mph - 0.00 in Rain Light Rain
5:53 AM 37.4 °F 28.2 °F 33.8 °F 87% 30.09 in 10.0 mi ESE 16.1 mph - N/A Rain Light Rain
6:53 AM 37.0 °F 27.4 °F 34.0 °F 89% 30.09 in 10.0 mi ESE 17.3 mph - 0.00 in   Overcast
7:53 AM 37.0 °F 27.0 °F 35.1 °F 93% 30.06 in 10.0 mi ESE 18.4 mph - 0.00 in Rain Light Rain
8:53 AM 37.0 °F 27.7 °F 36.0 °F 96% 30.05 in 9.0 mi East 16.1 mph - 0.00 in Rain Light Rain
9:53 AM 37.0 °F 26.4 °F 36.0 °F 96% 30.03 in 9.0 mi East 20.7 mph - 0.00 in Rain Light Rain
10:53 AM 37.9 °F 27.3 °F 36.0 °F 93% 29.99 in 9.0 mi ESE 21.9 mph 29.9 mph 0.02 in Rain Light Rain
11:34 AM 37.0 °F 26.7 °F 35.1 °F 93% 30.00 in 8.0 mi ESE 19.6 mph 29.9 mph 0.05 in Rain Light Ice Pellets
11:42 AM 37.0 °F 26.4 °F 35.1 °F 93% 29.99 in 5.0 mi ESE 20.7 mph 27.6 mph 0.06 in Rain , Snow Light Rain
11:53 AM 37.0 °F 26.4 °F 35.1 °F 93% 29.99 in 5.0 mi ESE 20.7 mph - 0.07 in Rain , Snow Light Rain
11:55 AM 37.0 °F 26.2 °F 35.1 °F 93% 30.00 in 5.0 mi ESE 21.9 mph - 0.01 in Rain , Snow Light Rain
12:08 PM 37.0 °F 25.9 °F 35.1 °F 93% 29.99 in 7.0 mi ESE 23.0 mph 31.1 mph 0.02 in Rain Light Rain
12:53 PM 37.0 °F 25.9 °F 35.1 °F 93% 29.98 in 8.0 mi ESE 23.0 mph 31.1 mph 0.07 in Rain Light Rain
1:07 PM 37.0 °F 25.6 °F 35.1 °F 93% 29.97 in 7.0 mi ESE 24.2 mph 34.5 mph 0.01 in Rain Light Rain
1:31 PM 37.0 °F 25.9 °F 35.1 °F 93% 29.97 in 9.0 mi SE 23.0 mph 29.9 mph 0.03 in Rain Light Rain
1:53 PM 37.9 °F 26.8 °F 35.1 °F 89% 29.97 in 3.0 mi ESE 24.2 mph 29.9 mph 0.04 in Rain Light Rain
2:53 PM 39.0 °F 28.5 °F 36.0 °F 89% 29.98 in 3.0 mi ESE 23.0 mph 29.9 mph 0.03 in Rain Light Rain
3:53 PM 37.9 °F 27.6 °F 36.0 °F 93% 29.98 in 4.0 mi ESE 20.7 mph - 0.01 in Rain Light Rain
4:53 PM 37.9 °F 26.8 °F 36.0 °F 93% 29.99 in 4.0 mi ESE 24.2 mph 29.9 mph 0.00 in Rain Light Rain
5:53 PM 39.0 °F 29.0 °F 36.0 °F 89% 29.99 in 4.0 mi ESE 20.7 mph 25.3 mph 0.00 in Rain Light Rain
6:53 PM 39.0 °F 29.9 °F 37.0 °F 93% 29.99 in 4.0 mi ESE 17.3 mph - 0.00 in Rain Light Rain
7:53 PM 39.9 °F 31.4 °F 36.0 °F 86% 29.96 in 10.0 mi ESE 16.1 mph - 0.00 in   Overcast
8:53 PM 39.0 °F 30.6 °F 37.0 °F 93% 29.95 in 6.0 mi East 15.0 mph - N/A   Overcast
9:53 PM 39.9 °F 31.1 °F 37.9 °F 93% 29.95 in 6.0 mi ESE 17.3 mph - 0.00 in Rain Light Rain
10:53 PM 39.0 °F 32.8 °F 37.0 °F 93% 29.92 in 8.0 mi ENE 9.2 mph - 0.07 in Rain Rain
11:45 PM 37.9 °F 31.5 °F 37.0 °F 97% 29.91 in 8.0 mi East 9.2 mph - 0.06 in Rain Light Rain
11:53 PM 37.9 °F 30.9 °F 37.0 °F 97% 29.91 in 8.0 mi East 10.4 mph - 0.07 in Rain Light Rain